SCP
0 0 0 0 0 0 0 0 0 -0 -0 -0 -0 -0 -0 0 0 0 0 0 0 0 0 0 -0 -0 -0 -0 -0 -0 0 0 0 0 0 0 0 0 0 0 0 0 0
0 0 0 0 0 0 0 0 0 -0 -0 -0 -0 -0 -0 0 0 0 0 0 0 0 0 0 0 0 0 0 0 0 0 -0 -0 -0 0 0 0 0 0 0 0 0 0
0 0 0 0 0 0 0 0 0 0 0 0 -0 -0 -0 0 0 0 0 0 0 0 0 0 0 0 0 0 0 0 -0 -0 -0 -0 -0 0 0 0 0 0 0 0 0
0 0 0 0 0 0 0 0 0 0 0 0 0 0 0 0 0 0 0 0 0 0 0 0 0 0 0 0 0 0 -0 -0 -0 -0 -0 0 0 0 0 0 0 0 0
0 0 0 0 0 0 0 0 0 0 0 0 0 0 0 0 0 0 0 0 0 0 0 0 0 0 0 0 0 0 -0 -0 -0 -0 0 0 0 0 0 0 0 0 0
0 1 1 1 1 0 0 0 0 0 0 0 0 0 0 0 0 0 0 0 0 0 0 0 0 0 0 0 0 -0 -0 -0 -0 0 0 0 0 0 0 0 0 0 0
1 1 1 1 1 0 0 0 0 0 0 0 0 0 0 0 0 0 0 0 0 0 0 0 0 0 0 0 -0 -0 -0 -0 0 0 0 0 0 0 0 0 0 0 0
1 1 1 1 1 0 0 0 0 0 0 0 0 0 0 0 0 0 0 0 0 0 0 0 0 0 0 0 -0 -0 -0 -0 0 0 0 0 0 0 0 0 0 0 0
1 1 1 1 1 0 0 0 0 0 0 0 0 0 0 0 0 0 0 0 0 0 0 0 0 0 0 0 -0 -0 -0 -0 0 0 0 0 0 0 0 0 0 0 0
1 1 1 1 0 0 0 0 0 0 0 0 0 0 0 0 0 0 0 0 0 0 0 0 0 -0 -0 -0 -0 -0 -0 -0 0 0 0 0 0 0 0 0 0 0 0
1 1 1 1 0 0 0 0 0 0 0 0 0 0 0 0 0 0 0 0 0 0 0 0 0 -0 -0 -0 0 0 0 0 0 0 0 0 1 1 0 0 0 0 0
1 1 1 1 1 0 0 1 0 0 0 0 0 0 0 0 0 0 0 0 0 0 0 0 0 0 0 0 0 0 0 0 0 0 0 0 1 1 0 0 0 0 0
1 1 1 1 1 1 1 1 1 1 1 0 0 0 0 0 0 0 0 0 0 0 0 0 0 0 0 0 0 0 0 0 0 0 0 0 0 0 0 0 0 0 0
1 1 1 1 1 1 1 1 1 1 1 1 1 0 0 0 0 0 0 0 0 0 0 0 0 0 0 0 0 0 0 0 0 0 0 0 0 0 0 0 0 0 0
1 1 1 1 1 1 1 1 1 1 1 1 1 1 0 0 0 0 0 0 0 0 0 0 0 0 0 0 0 0 0 0 0 0 0 0 0 0 0 0 0 0 0
1 1 1 1 1 1 1 1 1 1 1 1 1 1 1 1 1 1 1 1 0 0 0 0 0 0 0 0 0 0 0 0 0 0 0 0 0 0 0 0 0 0 0
1 1 1 1 1 1 1 1 1 1 1 1 1 1 1 1 1 1 1 1 1 1 1 0 0 0 0 0 0 0 0 0 0 0 0 0 0 0 0 0 0 0 0
1 1 1 1 1 1 1 1 1 1 1 1 1 1 1 1 1 1 1 1 1 1 0 0 0 0 0 0 0 0 0 0 0 0 0 0 0 0 0 0 0 0 0
1 1 1 1 1 1 1 1 1 1 1 1 1 1 0 0 0 1 1 1 1 1 0 0 0 0 0 0 0 0 0 0 0 0 0 0 0 0 0 0 0 0 0
1 1 1 1 1 1 1 1 1 1 1 0 0 0 0 0 0 0 0 0 0 0 0 0 0 0 0 0 0 0 0 0 0 0 0 0 0 0 0 0 0 0 0
1 1 1 1 1 1 1 1 1 1 0 0 0 0 0 0 0 0 0 0 0 0 0 0 0 0 0 0 0 0 0 0 0 0 0 0 0 0 0 0 0 0 0
1 1 1 1 1 1 1 1 1 0 0 0 0 0 0 0 0 0 0 0 0 0 0 0 0 0 0 0 0 0 0 0 0 0 0 0 0 0 0 0 0 0 0
1 1 0 1 1 1 1 1 0 0 0 0 0 0 0 0 0 0 0 0 0 0 0 0 0 0 0 0 0 0 0 0 0 0 0 0 0 0 0 0 0 0 0
1 0 0 1 1 1 1 1 0 0 0 0 0 0 0 0 0 0 0 0 0 0 0 0 0 0 0 0 0 0 0 0 0 0 0 0 0 0 0 0 0 0 0
1 0 0 1 1 0 0 0 0 0 0 0 0 0 0 0 0 0 0 0 0 0 0 0 0 0 0 0 0 0 0 0 0 0 0 0 0 0 0 0 0 0 0
1 0 0 1 1 0 0 0 0 0 0 0 0 0 0 0 0 0 0 0 0 0 0 0 0 0 0 0 0 0 0 0 0 0 0 0 0 0 0 0 0 0 0
Wind_Speed
16 15 13 12 12 12 13 13 12 11 11 10 10 10 10 10 11 11 11 10 10 9 9 8 8 7 8 8 9 10 10 10 10 11 11 11 11 10 8 7 7 10 12
18 15 13 12 12 12 13 13 12 11 10 10 10 10 9 9 9 10 9 9 8 8 8 8 7 7 7 7 7 7 7 7 6 7 8 9 9 9 9 10 10 9 11
18 15 14 12 12 12 12 12 12 11 11 10 9 9 9 8 8 8 8 8 7 7 7 7 7 7 6 6 6 5 4 3 3 4 5 6 8 9 9 11 12 11 10
17 13 13 13 12 12 12 12 11 11 11 10 9 9 8 8 8 7 7 7 7 6 6 6 6 6 5 5 4 3 2 1 2 4 4 3 7 10 9 10 10 10 9
15 14 14 13 13 12 12 12 11 11 11 10 9 9 8 7 7 6 6 6 6 5 5 5 5 5 4 3 3 1 1 3 5 8 6 3 7 11 10 9 8 8 8
16 15 14 14 13 12 12 12 11 11 11 10 9 8 7 7 6 5 5 5 5 4 4 3 3 3 2 2 1 1 3 6 8 7 3 4 8 10 11 9 8 7 6
15 15 14 13 13 12 12 11 11 10 10 9 8 8 7 6 5 4 4 4 3 3 3 2 2 2 1 1 1 2 4 7 8 7 1 5 9 12 11 9 8 6 6
15 16 14 14 13 12 12 11 10 9 9 8 8 7 6 5 4 4 3 3 2 2 2 1 1 2 2 2 3 4 6 9 8 6 0 7 12 12 11 9 8 6 5
14 15 12 12 12 11 11 10 10 9 8 7 7 6 5 5 4 4 4 3 2 2 2 2 2 3 3 4 4 6 7 9 9 6 2 5 12 12 11 9 8 7 6
11 11 11 10 10 10 10 10 10 9 8 7 6 6 5 5 5 5 5 4 4 3 3 3 4 4 5 6 7 7 8 9 8 7 1 6 13 12 11 9 8 7 7
10 8 8 9 8 7 9 10 9 8 6 6 5 5 4 4 5 5 5 6 5 5 5 5 6 6 7 8 10 10 8 6 8 4 1 8 12 12 10 8 8 7 7
9 8 6 7 6 6 6 7 5 5 5 4 3 4 3 2 2 2 5 7 7 7 6 7 7 7 8 6 7 9 5 7 7 2 3 11 11 11 9 8 7 7 8
8 7 7 6 5 5 5 5 3 2 3 3 2 2 2 1 1 1 2 3 4 5 4 5 5 5 5 3 2 4 4 4 2 1 3 9 9 9 8 7 7 8 8
8 7 6 6 5 5 4 3 2 2 2 1 2 1 1 1 0 0 0 1 2 2 2 2 2 3 3 2 3 3 3 2 2 0 2 7 9 9 8 8 8 8 9
7 6 7 6 5 5 4 1 2 2 1 1 2 1 1 1 1 1 1 1 1 1 1 1 2 2 2 2 3 2 2 2 2 2 1 5 7 7 8 8 8 8 9
7 6 6 6 5 4 3 2 2 2 1 2 2 2 3 2 2 2 1 1 1 2 1 2 2 2 2 2 2 2 2 2 1 2 2 2 5 6 7 7 7 8 8
7 6 5 5 5 5 4 2 2 2 3 3 3 3 4 3 3 2 2 2 2 2 2 2 2 2 2 2 2 3 2 2 2 2 2 1 1 4 6 6 6 7 8
7 6 4 5 6 6 4 3 3 3 3 3 3 3 4 4 4 3 2 3 3 2 1 2 1 2 2 2 2 2 1 1 2 2 1 1 1 2 4 6 6 6 6
6 5 5 5 5 5 4 3 3 3 3 3 3 3 3 3 4 3 2 2 3 2 2 3 2 2 3 3 3 2 2 2 2 2 1 1 1 1 1 3 6 6 5
7 6 5 5 5 4 3 3 3 3 3 3 3 3 3 3 4 3 2 3 3 2 2 3 3 2 2 2 4 3 2 2 1 1 1 1 1 0 0 0 2 3 5
7 6 5 5 4 3 2 2 2 2 2 2 2 3 3 3 4 3 3 2 3 2 3 3 3 3 3 2 2 3 2 1 1 0 0 0 0 0 0 1 0 1 2
7 6 5 5 4 3 2 1 1 2 1 1 2 3 3 3 3 3 3 3 3 2 2 3 3 3 3 2 2 3 2 1 1 0 0 0 1 1 1 1 1 0 0
7 5 5 4 4 3 2 2 2 1 1 2 2 2 2 3 3 3 3 3 3 3 2 3 3 3 3 3 1 2 2 1 2 1 1 1 1 1 1 1 2 2 2
7 6 5 5 4 3 2 2 1 2 2 1 1 2 1 2 2 3 3 3 3 3 3 3 3 3 3 3 3 1 2 1 1 1 2 1 1 1 2 2 2 2 3
8 7 6 5 4 4 3 2 2 2 1 1 1 2 1 1 2 2 3 3 3 3 3 3 3 3 3 3 3 3 3 2 1 1 2 1 1 2 2 2 2 2 2
8 7 6 5 5 4 3 3 3 2 2 2 2 1 0 1 2 3 3 3 3 3 3 3 2 3 2 3 3 3 2 2 1 1 1 2 1 1 2 1 1 2 2
Wind_Direction
108 111 110 113 118 122 128 129 126 122 117 113 109 103 96 91 88 88 88 90 91 91 89 87 86 84 78 70 66 67 70 73 77 82 84 84 82 79 76 79 98 94 97
111 112 108 112 117 120 126 129 129 125 121 118 113 108 103 99 94 92 91 92 94 93 92 92 93 93 88 83 78 76 78 82 90 101 108 103 94 85 76 68 73 98 103
111 117 111 109 115 118 123 127 128 127 125 122 119 115 110 104 99 97 94 94 94 95 94 95 96 96 94 92 90 88 91 101 125 152 164 135 115 103 91 87 89 99 101
115 119 112 111 113 116 120 124 127 128 128 126 124 121 116 110 105 100 97 96 96 95 95 97 99 98 98 99 101 105 115 184 229 237 230 163 126 118 110 102 101 103 104
113 110 111 113 113 116 118 123 127 129 129 129 127 125 120 114 109 106 103 100 97 96 96 96 99 101 103 106 113 136 230 260 266 262 258 130 113 128 124 119 116 113 113
120 116 115 115 115 116 119 122 125 128 129 130 130 128 124 119 117 116 112 110 105 101 100 100 100 103 111 117 139 223 266 277 284 264 248 130 124 137 133 131 129 126 126
121 118 120 117 117 119 122 123 124 126 128 130 132 132 130 128 128 127 124 120 118 115 116 117 121 127 138 176 223 256 273 283 277 284 307 118 134 144 141 141 141 142 143
121 119 122 121 122 123 125 125 124 126 129 130 131 131 134 137 140 142 140 135 133 137 142 149 169 184 202 228 248 264 276 284 285 291 131 118 141 147 148 150 153 156 162
121 125 134 135 132 129 126 126 126 127 128 129 131 133 140 149 156 164 165 163 166 172 180 200 221 217 224 236 249 263 273 281 290 286 249 134 149 152 154 158 164 170 174
115 122 130 136 139 144 138 135 136 138 138 140 144 153 165 177 185 189 190 187 192 201 212 220 228 233 236 242 246 254 265 279 271 273 236 148 154 155 158 165 175 183 186
106 106 118 130 136 145 144 140 145 148 147 154 162 173 189 202 199 195 203 177 196 212 224 230 232 235 239 242 242 245 258 259 261 254 157 149 159 159 161 169 182 190 196
115 116 115 122 135 141 134 135 153 158 152 181 172 176 202 226 234 209 170 181 199 215 226 231 239 242 239 241 231 231 245 259 270 274 153 157 165 161 163 173 186 196 206
114 109 111 113 118 121 120 138 142 144 147 187 164 177 202 218 220 159 167 184 210 223 228 224 228 241 240 243 232 212 235 267 278 297 143 162 166 165 173 184 196 203 212
105 106 105 104 100 85 89 120 125 119 137 159 126 146 201 241 299 127 197 200 215 229 228 231 233 244 264 265 255 236 225 251 272 307 177 179 182 179 190 198 203 210 215
100 89 87 88 82 79 75 63 96 83 100 104 89 58 11 13 6 351 328 335 304 298 269 265 274 290 301 303 291 296 297 267 280 291 225 198 191 190 198 203 206 212 218
98 92 86 89 89 87 89 75 67 77 75 70 73 42 19 21 13 346 330 326 337 331 352 318 312 328 300 293 298 304 294 294 287 278 271 220 204 204 205 205 209 213 218
99 90 88 94 83 78 71 69 76 71 65 59 59 46 25 14 11 351 342 1 354 330 329 315 312 309 281 279 269 267 264 274 273 284 298 304 229 215 208 207 213 219 223
97 92 82 83 87 84 73 53 55 48 63 62 55 43 27 16 10 353 1 14 330 316 335 321 323 317 320 320 314 295 288 268 258 246 252 265 258 224 207 210 214 216 218
98 94 87 80 83 84 84 81 76 59 53 60 51 38 23 18 17 2 17 5 328 340 348 337 358 334 328 321 302 279 276 271 262 258 245 246 252 240 197 201 201 200 202
105 97 90 89 84 88 89 87 81 74 63 69 69 38 23 15 13 350 10 6 347 353 354 353 341 324 309 301 304 312 293 263 252 247 249 263 290 295 218 167 186 204 213
112 104 98 93 88 92 99 103 99 86 75 74 86 68 40 19 6 354 7 358 357 2 2 351 338 327 317 319 307 302 289 253 222 186 277 303 311 32 54 83 148 214 207
120 115 108 101 94 87 90 100 115 112 104 95 70 65 39 25 8 9 12 356 5 351 10 358 344 334 325 332 307 299 292 319 18 357 90 5 345 26 44 44 37 355 307
126 119 111 101 91 83 83 90 97 112 108 88 90 85 43 31 19 8 6 4 356 351 12 347 352 338 325 318 313 302 307 332 348 344 13 52 49 38 31 31 39 31 33
130 122 109 104 93 83 81 80 91 96 89 78 66 80 50 51 31 14 4 4 353 349 356 349 8 330 327 326 329 310 296 301 277 313 344 10 32 43 38 24 30 30 38
125 119 110 101 94 81 70 68 54 60 71 77 77 86 76 88 52 30 13 0 345 348 0 350 342 335 335 335 330 332 327 312 252 245 283 321 4 20 38 30 31 36 32
125 119 113 103 96 85 73 68 67 63 65 61 53 72 37 86 48 28 24 2 349 356 353 338 331 333 344 335 330 329 322 318 325 307 281 298 318 339 5 20 30 39 30